Theta_e
328 328 327 328 324 319 321 319 314 318 325 324 315 314 316 315 316 317 314 316 325 331 336 342 342 342 342 343 345 344 346 348 347 348 350 350 351 351 353 356 356 357 358 356 354 355 355 357 357 357 356 357 358 361 363 363 364 365 364 363 363 363 363
327 327 327 329 327 324 320 314 316 323 326 325 319 314 315 316 316 316 313 314 319 319 325 338 343 343 342 342 344 344 345 348 348 347 349 352 352 352 353 356 357 357 359 357 355 354 355 356 357 356 356 356 357 360 363 364 364 365 365 364 364 363 363
326 328 326 324 326 328 323 319 323 323 316 316 317 314 315 316 316 315 314 315 317 317 324 333 336 342 344 343 343 344 345 348 348 346 349 350 351 352 354 355 355 355 356 355 355 354 354 354 356 356 356 356 358 360 362 364 364 365 365 364 364 363 362
327 327 323 317 319 326 326 324 325 323 318 316 316 315 314 315 316 316 316 315 316 324 336 341 340 343 343 343 345 344 343 347 348 347 348 349 349 351 353 352 354 354 354 354 353 353 354 355 355 356 356 356 358 359 362 363 364 365 365 364 364 364 362
325 320 322 320 319 322 320 318 317 317 319 319 318 316 313 313 315 318 319 315 316 333 348 347 348 348 343 343 346 345 342 344 347 347 347 347 347 350 352 351 352 352 352 351 352 352 354 354 357 357 357 357 358 359 361 363 364 365 365 365 364 364 363
317 320 327 328 326 325 322 317 316 316 317 315 313 314 313 312 312 315 318 315 320 340 345 342 347 348 345 345 345 345 343 343 345 346 345 346 348 351 352 352 351 351 352 351 350 352 353 353 357 358 358 358 358 359 361 362 365 365 365 365 365 364 363
321 327 330 328 326 327 326 323 322 322 320 314 310 312 315 313 311 314 315 313 325 348 345 343 347 346 346 347 347 346 345 341 343 344 344 346 350 353 352 351 351 351 352 352 350 353 353 352 356 358 358 359 359 359 361 362 363 365 365 365 365 364 364
326 329 330 329 329 328 324 323 324 323 321 317 315 319 323 317 312 315 315 312 323 342 344 348 353 354 350 345 345 346 344 344 343 343 347 350 352 354 352 351 351 351 352 354 354 356 355 353 355 357 358 359 359 358 360 362 363 364 365 365 365 364 364
320 322 325 324 324 324 323 324 325 324 324 323 319 321 323 318 313 316 316 313 322 341 346 347 354 357 351 346 344 343 341 345 344 344 351 354 352 353 353 350 350 352 355 357 359 358 356 354 355 357 357 358 358 358 358 360 362 363 364 365 364 364 363
315 315 317 318 318 321 323 325 326 325 324 322 318 315 315 317 319 318 314 315 327 346 342 334 339 345 347 350 350 344 342 347 348 349 352 354 353 352 352 352 351 354 359 359 359 359 355 354 356 356 356 357 357 357 358 358 360 362 363 364 364 364 364
317 317 321 328 327 320 317 321 324 324 325 324 320 313 310 317 323 320 320 323 326 337 343 337 335 337 343 353 357 358 361 363 365 363 355 352 353 351 352 355 355 357 361 360 361 360 356 355 357 357 355 357 357 357 357 357 358 360 361 363 364 364 363
324 329 331 334 331 322 318 320 321 324 327 325 320 314 313 318 316 315 330 338 324 326 341 343 341 345 349 352 357 366 376 374 369 365 357 351 351 353 356 358 359 361 363 361 362 361 358 356 357 358 357 356 357 357 356 357 357 358 360 362 364 364 363
326 330 330 331 331 328 325 324 322 324 326 323 319 317 320 324 317 313 329 344 335 332 336 337 346 361 360 349 347 357 370 374 367 360 358 354 352 356 361 361 362 364 364 365 365 363 361 358 357 359 358 357 357 357 357 357 356 357 360 361 362 364 364
324 327 328 330 328 327 325 325 326 326 325 324 322 322 324 326 325 324 328 341 350 350 340 334 346 365 365 355 347 344 354 365 368 362 357 354 353 356 359 360 361 363 365 366 366 366 365 361 358 359 359 357 358 357 356 357 356 357 360 361 362 363 364
321 324 327 327 325 325 323 323 327 326 325 325 322 324 327 324 327 332 329 333 344 353 351 344 347 356 356 352 349 345 348 358 365 363 356 354 354 355 358 361 360 362 364 365 365 367 366 361 358 358 359 358 358 358 357 356 356 356 358 360 361 362 363
321 324 325 324 325 324 319 319 325 324 322 323 322 324 327 324 325 330 327 323 330 344 352 346 344 350 352 356 359 356 353 356 359 360 357 355 356 355 358 363 361 360 363 363 363 365 362 359 358 358 359 358 358 358 358 357 356 357 357 359 360 361 362
321 324 325 323 321 318 315 318 325 327 326 326 326 326 328 328 326 325 326 331 340 351 357 349 344 346 347 356 365 359 357 361 360 360 357 354 357 358 358 361 360 357 357 359 361 361 358 357 357 358 359 358 358 358 358 357 357 356 357 358 359 360 361
319 325 326 324 319 314 317 324 328 330 331 329 327 327 328 330 328 325 330 340 345 345 349 350 349 349 345 350 357 355 356 361 363 362 359 354 356 359 360 361 360 358 358 359 359 357 356 357 357 357 358 358 358 358 358 357 358 357 357 357 358 361 361
322 327 326 322 318 319 325 332 333 330 330 331 332 333 333 331 333 333 331 333 338 342 345 346 348 355 358 359 361 357 349 345 348 349 354 358 359 359 361 364 363 363 365 366 365 361 357 358 358 358 358 358 358 358 357 357 356 356 357 356 357 359 359
323 325 323 321 324 330 334 337 334 333 336 336 330 330 336 338 339 342 343 344 349 352 350 347 347 348 351 354 361 363 353 346 343 340 343 355 359 357 360 366 369 370 370 369 370 369 364 362 361 358 357 357 358 357 356 355 355 355 355 355 355 356 357
323 320 320 322 324 327 332 335 336 339 342 344 342 337 341 347 345 345 353 355 355 352 348 351 354 352 353 357 357 352 345 343 345 341 339 347 353 352 355 360 361 363 365 365 365 368 369 367 364 359 357 356 356 356 355 354 354 353 353 353 355 355 355
330 322 319 322 321 320 328 336 339 339 338 345 356 350 345 351 351 348 354 357 356 356 354 354 357 359 364 366 358 346 341 340 338 337 335 332 336 342 347 353 356 356 361 365 364 365 368 368 365 362 358 356 355 355 355 353 353 352 352 353 355 355 355
335 326 319 320 318 322 338 347 339 334 337 342 346 341 340 354 357 351 353 358 358 360 359 357 362 370 371 366 358 351 348 345 338 338 341 337 334 336 336 337 346 354 358 362 363 364 364 365 365 364 360 356 355 354 354 353 353 352 351 353 355 356 355
332 330 325 320 320 333 350 348 335 334 341 344 339 332 337 356 359 352 355 359 359 361 362 361 366 374 374 368 362 356 353 351 346 346 352 354 351 350 348 342 342 349 358 364 366 366 364 363 364 364 362 359 355 354 355 353 353 353 352 352 355 356 356
328 330 330 326 329 348 355 342 337 340 341 341 336 334 347 359 356 354 356 355 357 359 360 364 367 366 364 362 361 357 355 356 355 353 355 357 353 352 355 356 354 355 361 366 368 367 366 365 364 364 364 362 359 356 355 354 354 354 353 352 354 358 359
328 327 334 333 334 348 351 341 342 344 343 343 340 345 357 358 352 354 353 352 356 357 356 361 363 359 356 356 356 357 356 357 358 357 358 362 361 356 355 358 360 363 366 366 365 367 368 367 367 367 366 365 363 360 358 357 355 355 355 355 359 363 365
334 330 336 340 341 345 344 345 354 358 355 354 354 354 355 352 351 354 351 350 354 355 354 357 356 354 356 355 354 356 355 354 356 355 356 360 365 367 368 365 360 363 369 368 364 363 365 365 367 369 368 368 366 364 363 361 358 359 362 364 366 368 368
341 336 336 340 342 345 342 345 356 359 356 356 356 353 351 350 350 350 349 349 350 351 351 351 349 350 353 352 351 353 353 352 353 353 353 353 352 354 360 360 355 357 364 363 355 353 357 359 361 362 364 367 368 367 367 365 364 368 371 371 371 370 368
342 341 340 340 341 343 345 345 350 351 349 349 348 346 346 347 346 346 346 344 345 346 345 344 345 347 347 347 347 347 348 350 351 351 351 350 349 347 348 350 351 352 355 354 349 348 352 356 357 359 358 357 359 365 369 371 371 371 369 367 366 365 364
339 338 341 343 341 340 342 344 345 346 344 343 342 341 341 341 341 341 341 341 342 342 341 341 343 343 342 343 343 343 345 347 349 350 350 349 349 348 347 347 348 347 347 350 350 349 349 351 354 357 356 352 350 353 359 363 363 359 355 353 353 354 355
340 340 343 344 342 339 340 344 343 342 340 339 339 340 340 339 338 338 338 340 340 340 339 340 340 339 340 341 341 342 344 345 346 348 350 350 350 350 348 347 347 345 346 352 354 349 346 349 352 353 352 351 349 348 350 353 354 352 350 349 349 350 352
341 343 345 343 341 340 339 341 341 339 338 336 336 336 336 335 334 333 333 335 336 337 338 338 338 338 338 338 339 340 340 342 343 345 347 350 350 349 347 347 348 347 347 351 352 348 346 349 352 351 349 349 348 348 348 347 347 348 348 348 349 349 350
340 343 345 344 344 344 340 338 337 336 336 334 333 332 331 330 330 329 329 330 331 332 334 335 336 337 338 338 339 339 338 339 340 341 346 350 348 346 346 345 346 348 348 348 350 349 348 349 351 352 349 346 346 347 348 347 348 347 346 348 351 351 352
341 343 342 341 343 345 341 336 334 333 332 331 330 330 329 328 329 329 329 330 329 329 330 331 333 336 338 338 338 339 340 341 340 340 345 350 349 347 347 346 345 346 348 348 349 349 348 348 351 352 348 343 343 345 344 345 347 348 349 351 354 354 355
338 339 338 337 340 342 340 336 334 332 330 330 329 329 328 328 329 329 330 330 330 329 329 329 330 332 335 336 337 338 339 340 341 340 342 347 350 348 347 348 348 347 346 348 350 350 348 349 350 352 349 344 343 344 343 343 346 349 351 352 353 354 354
334 334 335 337 339 339 337 334 333 333 332 332 331 330 330 329 329 330 329 329 329 329 329 329 329 331 332 333 335 337 338 339 341 340 338 341 345 346 345 346 348 347 346 346 346 347 348 349 350 353 352 350 349 349 348 348 350 352 352 352 352 353 352
333 334 334 336 338 337 335 335 334 333 333 333 333 332 332 331 330 330 329 329 329 329 330 331 330 330 331 332 333 335 337 338 338 337 336 337 339 342 343 344 345 346 347 346 344 345 346 348 351 354 354 353 352 353 353 353 352 352 352 352 352 351 350
Wind_Speed
15 12 12 14 10 5 5 9 12 8 6 6 3 4 4 3 5 6 5 6 4 3 5 5 8 13 16 16 16 17 18 19 18 14 14 15 15 15 14 14 15 16 16 18 23 28 29 30 33 36 37 37 37 37 38 39 39 39 39 39 38 37 36
18 15 11 15 15 9 4 6 8 3 4 7 4 4 5 4 6 5 6 8 5 3 4 6 8 10 14 15 14 15 15 17 19 17 16 17 18 17 16 16 16 16 16 18 22 28 31 33 35 37 38 37 37 37 39 40 39 39 40 39 39 38 37
16 15 12 12 14 14 10 5 5 5 7 9 6 4 6 6 7 4 6 8 6 6 5 7 12 10 12 14 14 14 13 15 19 20 20 20 19 17 16 17 16 15 16 17 21 27 31 34 35 36 38 37 37 37 38 40 41 41 41 40 39 39 38
13 12 10 9 9 12 12 9 7 7 6 6 6 5 4 5 6 5 6 7 5 6 5 8 12 12 12 13 15 16 15 15 18 19 19 19 18 17 16 17 17 17 18 19 24 29 31 33 34 34 36 37 36 36 37 39 39 40 40 40 40 39 39
11 10 9 10 9 10 11 10 10 8 4 3 5 6 6 6 5 4 5 6 5 5 6 7 9 9 12 12 13 15 15 15 19 20 20 19 18 17 18 17 17 18 19 19 25 30 31 31 32 33 36 37 37 36 36 37 38 39 40 40 40 39 38
8 8 11 14 14 12 11 10 11 10 5 4 5 7 8 8 6 4 4 5 6 5 5 8 9 8 10 11 12 13 13 14 17 20 20 19 18 17 18 18 17 18 18 17 21 26 27 28 30 33 36 37 36 36 36 37 38 39 40 40 40 39 39
8 8 12 18 19 17 13 11 11 10 7 6 6 6 5 6 7 6 4 5 6 6 7 8 9 9 8 10 12 13 13 12 14 17 18 17 18 18 19 19 18 17 17 16 18 23 27 29 31 33 35 36 37 37 37 36 37 38 39 39 40 39 39
9 10 9 16 20 17 13 11 11 11 10 9 7 5 4 5 6 6 6 7 7 6 8 7 7 9 8 8 12 14 14 11 11 14 16 16 18 19 19 19 18 16 15 14 15 17 21 26 29 33 35 36 37 37 37 37 37 39 39 38 39 39 40
6 9 7 10 17 15 9 9 11 14 15 13 10 7 4 5 9 8 6 6 7 6 7 7 7 7 6 6 8 11 12 11 10 10 13 16 18 19 20 19 17 15 13 13 14 13 16 22 26 30 34 35 36 37 38 37 37 38 38 38 38 40 40
9 10 7 5 9 11 8 9 12 15 18 17 12 7 5 6 9 9 7 5 6 5 10 14 15 11 7 5 3 4 7 9 10 9 12 16 17 18 19 17 15 14 13 13 14 13 15 21 25 28 32 34 35 37 38 37 37 37 38 37 38 40 41
9 9 8 4 4 9 12 15 16 15 16 18 13 7 7 7 4 6 8 7 6 7 9 16 18 14 9 6 1 3 1 4 5 9 14 16 17 16 16 15 14 14 14 15 16 15 16 22 26 28 31 33 34 35 37 38 37 37 37 37 38 39 41
13 9 8 8 8 9 14 17 18 17 15 15 14 12 12 7 4 6 9 7 8 11 9 9 12 10 8 8 5 6 6 3 3 6 14 18 17 15 14 14 16 16 16 15 16 15 16 21 24 26 29 32 34 35 36 37 36 36 37 38 38 39 40
18 15 12 12 13 12 13 16 18 19 19 17 15 15 14 9 7 9 8 6 7 11 11 10 9 6 6 9 9 8 8 7 6 7 12 14 15 14 13 14 16 16 16 15 15 14 15 18 21 23 25 29 31 33 35 37 37 37 38 38 38 38 39
18 20 18 16 15 14 13 15 17 17 19 21 20 16 12 11 10 11 9 9 9 8 9 11 8 7 6 5 6 8 8 10 9 9 11 13 14 14 14 15 16 16 16 15 14 14 14 15 18 22 25 29 32 34 36 38 38 38 39 40 39 39 39
14 19 20 19 18 17 14 12 16 18 18 20 20 17 12 9 8 9 10 9 8 7 7 8 6 5 6 3 3 6 7 9 12 10 11 12 13 12 12 12 13 13 14 14 14 14 13 15 19 23 26 30 33 34 36 38 38 39 40 40 41 40 41
6 13 19 21 20 18 17 15 15 18 16 14 13 14 14 12 10 8 8 9 8 7 6 5 6 4 6 6 6 6 5 6 11 12 12 12 14 15 15 14 13 14 15 15 15 15 15 17 22 25 28 30 32 33 36 39 40 40 40 41 41 42 42
4 7 15 22 19 15 16 17 13 10 10 10 11 11 13 16 13 7 5 6 6 5 6 6 7 7 6 7 6 6 5 4 6 10 12 12 11 13 14 15 16 16 15 15 16 16 17 20 26 30 32 31 32 36 39 41 40 39 39 40 41 41 42
5 7 9 12 14 13 12 11 9 9 9 10 10 9 9 11 11 9 8 8 6 4 5 7 8 9 8 8 8 7 7 6 5 6 9 10 10 12 15 16 17 16 14 13 15 18 22 26 31 35 35 35 38 40 41 40 40 40 40 39 39 40 42
4 4 4 5 9 9 6 6 8 12 13 11 9 9 7 4 2 5 9 10 6 2 1 3 3 4 7 6 7 8 8 8 9 9 9 9 11 14 16 16 16 17 17 15 15 17 23 29 31 33 34 36 37 38 38 38 39 41 40 39 39 41 43
4 4 4 5 5 2 3 3 7 7 7 7 5 5 5 3 7 5 1 1 2 6 7 5 4 3 3 2 2 5 6 7 9 10 10 9 9 11 14 15 15 16 17 17 18 21 25 29 29 30 33 36 35 34 36 37 39 41 41 38 38 40 43
5 5 4 3 3 3 4 4 3 3 3 2 3 2 2 4 7 8 6 7 8 8 8 7 7 7 6 6 5 5 4 3 4 6 7 7 7 8 10 12 15 17 19 21 23 25 26 27 28 30 33 35 34 32 34 36 37 39 39 37 37 40 43
1 3 3 3 4 5 5 3 1 3 7 9 7 5 3 5 6 8 9 9 9 8 7 8 8 8 8 5 6 7 9 10 8 7 7 7 9 9 9 10 13 17 21 24 25 26 26 26 30 33 34 35 33 31 32 35 36 36 36 37 39 41 43
2 4 2 5 4 3 3 3 2 1 5 9 7 4 3 5 6 8 11 11 9 8 7 8 8 8 5 4 6 8 10 10 8 8 9 10 9 8 8 10 12 16 24 28 29 29 27 27 31 34 35 35 33 30 32 35 34 33 35 38 41 43 45
2 5 1 3 2 1 2 0 1 2 4 9 5 1 2 4 6 9 11 11 9 7 7 8 8 7 3 3 7 9 11 9 7 5 4 4 4 4 2 4 11 19 25 25 23 23 25 30 35 38 37 34 31 29 33 35 33 34 38 43 46 46 44
4 4 2 2 1 1 3 6 7 5 5 8 4 4 2 3 7 8 9 9 8 7 8 7 5 3 2 4 6 9 11 11 10 8 6 6 6 8 10 8 3 16 23 20 18 21 26 30 33 33 32 29 27 31 32 29 31 39 44 45 44 42 39
4 4 2 1 3 4 3 8 10 8 5 4 2 2 3 5 8 9 9 9 7 6 8 7 5 3 3 6 8 11 12 11 12 13 11 10 10 11 16 19 12 4 14 17 19 24 30 35 36 35 32 27 25 28 28 28 36 44 43 40 38 36 36
3 3 3 2 2 6 4 6 6 5 2 3 2 5 6 6 8 8 8 8 6 5 7 7 6 6 7 9 10 11 12 13 13 13 13 12 11 10 11 15 16 11 4 1 0 1 4 12 18 22 25 26 26 23 22 29 38 37 32 33 34 33 33
3 2 2 1 5 9 5 3 2 1 3 3 4 6 5 5 6 7 7 7 7 6 8 8 8 9 10 11 11 11 12 13 12 12 13 14 14 12 11 12 14 14 10 8 11 18 20 16 11 9 9 9 14 21 26 32 34 29 29 32 32 32 33
1 3 4 6 11 13 8 4 7 6 7 8 9 9 7 5 5 5 6 6 7 8 9 10 10 10 10 10 11 11 10 10 10 10 11 11 11 12 13 14 15 12 11 10 12 16 21 22 17 15 20 22 18 14 16 22 21 20 23 23 23 25 27
4 4 2 6 12 16 13 2 9 11 9 9 10 10 9 7 6 6 7 7 8 9 9 11 10 9 8 9 10 9 9 9 9 9 9 9 10 10 11 13 15 11 11 12 11 13 18 24 23 20 23 27 24 19 8 21 31 31 30 27 24 22 21
4 3 4 6 9 15 16 6 8 13 12 11 10 9 8 8 7 8 9 9 9 9 10 11 10 8 9 9 8 8 8 8 9 9 9 9 9 9 9 11 12 11 9 9 10 11 14 19 24 26 28 30 26 20 17 23 35 41 41 35 28 23 21
2 4 5 5 5 11 16 10 3 11 12 13 13 11 9 10 10 11 11 10 9 9 9 9 9 10 10 10 8 8 7 7 7 7 7 7 8 9 11 13 13 10 7 7 9 11 13 17 23 28 29 29 25 21 20 21 26 34 39 39 34 30 26
4 4 5 6 6 8 13 14 8 8 11 13 14 12 12 13 12 12 12 11 10 10 10 9 9 10 9 8 8 8 7 7 7 7 6 5 6 8 11 14 15 13 9 8 11 13 14 17 21 25 27 26 22 19 19 19 18 21 26 31 33 33 31
2 1 4 6 5 4 7 12 11 10 10 12 14 13 13 13 11 10 12 11 11 12 11 10 9 9 8 7 7 7 6 6 7 8 7 4 4 7 9 11 13 13 11 9 10 12 16 18 20 23 26 26 21 14 12 14 17 20 22 22 24 28 29
4 5 5 5 3 3 5 9 10 9 7 10 13 13 12 12 10 10 10 10 10 11 10 10 10 9 8 8 8 8 7 7 7 8 9 8 6 8 9 9 8 10 11 12 10 7 12 16 18 21 25 26 23 19 18 18 21 25 25 21 20 23 25
6 7 6 3 2 1 4 7 8 8 6 7 11 12 11 11 10 10 11 10 10 9 9 9 9 9 9 9 9 8 9 9 8 9 11 13 12 10 11 10 9 8 11 12 12 9 6 10 12 16 23 27 26 26 27 27 26 26 26 23 21 21 22
7 7 4 2 2 3 1 4 6 6 6 6 9 10 10 10 10 10 10 10 9 8 8 8 8 9 10 9 9 9 8 9 11 12 12 13 12 10 11 12 12 11 13 14 11 7 3 6 10 16 23 27 28 28 29 28 25 24 23 22 22 22 24
Wind_Direction
222 213 193 201 214 215 187 192 216 225 195 198 225 246 254 244 234 236 231 243 245 246 261 242 207 194 188 189 185 186 189 188 189 187 185 188 188 186 183 178 179 180 182 183 185 187 186 186 188 190 191 190 188 186 185 187 188 189 191 192 194 196 196
215 218 200 198 211 217 193 192 207 214 221 217 200 217 239 238 239 228 220 240 237 211 244 251 236 206 188 188 185 187 188 179 181 186 188 189 189 189 185 182 184 181 180 184 186 187 187 187 189 190 190 189 188 187 186 186 186 187 190 191 193 196 196
201 209 211 203 207 214 220 219 182 177 216 212 183 192 205 216 240 240 234 245 227 200 202 211 221 210 188 191 189 189 188 174 175 183 186 187 188 189 186 186 189 186 183 187 187 188 189 188 189 188 188 188 188 187 186 186 187 188 189 191 193 195 197
186 190 210 204 196 204 219 234 219 205 209 191 181 201 200 208 227 224 233 248 234 218 203 194 210 207 192 192 187 191 192 176 175 182 184 187 187 187 188 189 190 189 190 191 190 190 189 188 188 185 185 187 187 187 186 186 187 188 189 191 193 195 196
193 190 200 192 183 189 204 219 224 224 214 164 174 202 209 212 216 198 209 233 246 234 205 200 218 214 205 200 187 191 193 179 178 183 185 186 188 188 188 189 189 190 194 195 193 192 189 186 184 182 184 187 187 187 186 185 186 186 189 191 193 194 195
217 203 188 182 184 190 196 207 218 222 211 178 190 215 217 211 216 210 204 239 256 250 222 209 220 224 209 200 190 192 197 188 183 188 187 183 185 187 186 188 190 190 194 196 191 188 186 184 183 182 184 185 186 187 187 186 186 188 190 191 192 194 194
248 230 191 180 183 192 198 205 213 217 217 205 204 219 213 207 223 215 209 251 254 244 242 222 217 230 219 194 186 186 194 195 188 191 189 180 180 183 183 186 189 190 195 195 186 182 183 185 185 184 183 184 185 186 185 186 188 190 192 192 193 193 194
269 268 228 186 180 187 201 206 202 209 219 220 220 221 190 193 218 196 193 237 237 216 232 235 223 230 227 200 183 180 184 191 193 189 183 178 180 181 183 186 188 190 190 185 181 180 182 186 185 183 182 183 184 184 185 188 190 191 192 193 192 193 195
246 262 257 200 185 186 200 203 195 202 212 217 228 232 204 204 218 199 183 230 240 205 211 251 267 247 228 207 189 184 184 188 195 187 173 175 180 181 185 186 184 182 176 173 180 182 183 186 184 180 180 181 182 183 186 188 190 191 192 193 192 193 195
208 223 230 206 186 184 194 204 201 201 202 208 222 224 207 219 223 211 201 224 256 221 193 219 247 255 257 255 224 202 203 203 198 181 168 173 178 180 182 180 177 174 171 174 181 181 182 186 184 181 179 180 181 183 186 188 189 190 191 192 192 194 195
206 219 225 220 190 185 190 199 206 207 202 202 208 215 221 215 193 223 227 214 241 255 207 209 227 237 241 243 219 73 172 226 198 170 167 172 175 176 173 171 172 173 173 179 183 183 185 186 185 183 180 180 180 182 186 189 188 188 190 192 193 194 196
212 217 231 235 233 215 196 192 200 211 214 208 204 213 226 211 165 242 247 204 218 251 247 230 235 233 224 215 176 110 106 86 60 145 166 170 169 167 165 166 170 171 174 181 184 185 186 185 184 183 181 181 180 181 185 187 188 187 188 191 193 195 196
215 219 230 232 237 241 217 196 194 202 212 220 220 220 219 204 202 240 240 185 203 238 242 241 237 218 217 220 195 154 133 118 94 119 150 160 159 156 159 163 163 168 175 180 182 182 181 181 181 180 181 181 180 182 185 187 188 188 188 190 194 195 196
209 217 228 232 238 248 234 207 195 197 207 215 224 232 224 207 214 233 229 207 213 231 235 238 228 187 189 217 190 165 144 128 125 134 146 157 162 160 162 165 164 169 176 178 180 181 178 178 179 178 180 181 181 183 186 188 188 187 187 190 194 195 197
204 208 218 230 238 245 247 225 201 201 209 211 216 226 232 228 224 225 224 223 230 234 224 236 245 188 154 150 182 193 182 145 139 148 152 155 162 162 163 166 169 173 178 179 180 181 181 181 180 180 181 183 184 185 186 188 189 188 188 191 193 196 197
210 204 207 219 232 241 251 249 222 207 209 212 211 210 213 223 230 224 220 224 236 240 220 229 260 227 167 171 186 200 212 164 140 148 161 165 171 174 173 173 177 180 182 185 183 182 186 186 183 184 184 184 185 186 187 190 190 189 189 191 193 196 197
222 224 212 210 214 229 243 244 239 223 209 214 220 209 200 206 214 218 218 219 221 208 183 194 226 224 198 192 187 181 199 190 143 154 171 175 179 185 181 178 184 187 187 187 186 185 188 189 188 189 187 185 187 188 190 191 189 189 191 193 194 195 196
200 228 232 211 201 216 231 231 238 249 240 230 230 228 212 205 210 211 206 213 218 189 171 190 209 219 216 205 200 194 190 193 187 183 183 175 177 193 195 186 185 189 191 191 190 190 191 191 193 193 190 188 190 192 191 190 188 189 193 195 195 195 195
165 188 232 230 213 220 223 198 209 234 244 246 245 249 253 254 252 232 219 218 218 182 150 186 198 252 255 223 199 201 206 211 214 216 216 198 178 184 195 194 189 188 190 192 192 192 194 195 194 194 193 193 193 193 191 189 189 191 193 195 196 195 196
153 165 194 219 230 304 340 219 203 216 246 260 259 265 285 7 59 61 331 286 71 71 61 60 66 27 322 313 227 214 218 223 216 213 217 212 189 182 188 192 195 193 190 190 191 191 194 196 195 193 194 195 194 192 191 190 191 193 194 195 196 196 196
174 179 192 240 274 306 304 275 223 147 121 126 142 150 321 14 71 88 71 41 40 54 57 44 33 40 45 20 335 316 329 311 256 229 214 202 197 199 192 186 191 197 195 191 189 188 189 192 194 194 195 195 193 192 192 192 193 195 195 197 197 197 197
108 147 174 224 248 237 230 244 337 75 101 109 115 107 41 2 32 78 87 67 43 38 45 41 35 42 44 12 322 332 349 344 328 315 293 255 226 218 211 194 184 187 192 193 190 188 188 191 194 195 195 194 192 191 192 194 195 196 197 199 199 199 200
48 86 165 217 217 217 213 186 205 297 93 98 92 62 10 335 3 56 79 76 57 42 35 41 55 58 39 335 310 327 341 341 334 333 323 301 270 243 228 217 204 194 190 190 190 189 189 191 194 196 195 193 191 191 193 195 196 197 199 200 200 202 202
45 85 86 259 196 192 281 238 169 217 104 95 102 193 270 335 13 51 72 75 68 57 49 51 62 68 49 307 305 324 343 348 336 332 352 349 329 320 303 225 211 205 198 192 189 191 192 193 194 195 195 192 190 192 195 196 196 200 202 201 201 203 203
2 71 78 312 30 282 312 17 17 359 65 89 124 200 217 36 48 54 63 72 72 67 67 70 76 74 4 308 318 337 355 2 355 354 12 29 23 5 0 14 134 189 195 191 187 189 193 195 196 196 194 193 192 194 195 196 199 203 204 203 202 200 196
341 30 38 3 328 304 347 40 24 11 51 106 137 83 41 56 71 63 55 61 64 68 77 84 98 90 22 4 7 2 1 4 1 0 6 11 18 16 5 4 16 160 191 194 193 194 196 197 196 195 194 195 197 197 197 199 203 206 205 201 196 192 186
341 352 23 81 309 305 353 49 22 11 68 180 169 71 51 53 70 69 61 53 42 53 72 70 66 60 39 30 28 15 7 10 6 3 6 3 4 17 17 6 9 22 51 156 253 328 230 206 200 200 201 202 199 195 198 204 204 203 199 191 183 178 173
23 330 330 341 310 313 341 63 73 77 111 120 103 86 68 48 56 65 63 47 29 43 64 58 45 43 36 30 29 22 13 13 11 10 15 12 5 3 2 1 15 35 47 36 31 28 21 15 11 355 329 278 228 208 201 202 200 188 179 176 169 161 159
323 270 283 311 319 320 334 71 98 96 87 81 83 88 81 58 50 63 67 53 38 46 62 62 48 39 33 27 28 26 16 12 15 18 21 23 20 9 1 2 14 42 62 53 45 43 34 31 33 25 18 10 338 283 215 180 163 147 143 143 139 137 140
308 275 299 345 340 331 322 347 105 97 90 87 85 86 84 75 65 68 70 66 58 54 60 64 55 40 34 35 30 25 19 14 17 21 24 25 23 19 14 6 5 24 58 62 59 56 45 44 49 51 55 53 29 358 30 113 114 108 100 92 89 95 104
325 321 8 9 344 326 316 309 104 95 90 90 85 82 87 87 78 71 68 66 65 61 61 65 64 50 41 41 35 26 23 18 14 17 22 23 21 23 27 18 11 19 44 56 65 66 55 54 62 66 70 75 69 48 53 92 109 112 110 105 99 97 101
317 300 326 346 335 320 314 310 89 97 94 91 87 85 85 80 72 66 62 58 58 59 56 59 65 59 47 41 37 31 23 13 8 6 7 11 18 23 27 29 31 34 40 51 68 74 67 65 73 78 80 82 82 75 73 86 101 110 117 122 125 126 131
306 289 322 350 354 341 329 327 0 68 89 90 86 83 78 74 71 68 64 57 54 54 50 46 53 56 47 38 37 35 27 16 9 0 352 0 21 30 32 36 41 46 52 61 74 88 95 91 87 88 92 95 95 89 90 101 111 114 120 129 135 138 142
293 319 6 4 356 346 329 329 351 31 65 80 82 78 73 70 68 67 66 62 54 52 48 40 43 48 39 29 31 34 28 17 9 5 4 7 30 42 43 43 43 44 44 48 70 98 115 113 104 102 107 111 114 113 111 120 127 126 125 129 134 137 139
277 294 321 333 338 337 321 324 342 3 35 71 81 80 78 76 70 65 67 65 56 51 44 38 39 40 30 21 24 28 20 9 5 10 17 28 36 36 36 37 37 39 31 16 17 62 106 115 117 123 126 128 135 148 157 157 149 141 138 139 139 136 135
272 280 293 296 264 260 312 332 344 348 3 57 78 80 81 83 78 71 70 66 60 55 48 38 35 34 29 23 22 24 19 13 9 9 18 32 39 34 27 21 13 26 43 34 14 13 72 119 130 128 126 129 138 148 154 157 155 150 147 145 141 134 130
263 275 288 280 227 205 257 340 345 340 351 41 71 78 79 81 80 77 73 69 64 59 51 42 33 30 31 28 22 22 20 15 16 18 21 28 34 36 36 26 9 11 39 53 43 21 45 130 129 115 115 125 136 141 145 149 148 145 143 140 133 130 130